Minot, ND

10:39 PM CDT on May 28, 2017 (GMT -0500)
Minot International

Weather History for KMOT - October, 2011

Change the Weather History Date:

Friday, October 14, 2011

  Actual Average Record
Temperature  
Mean Temperature 45 °F 46 °F  
Max Temperature 52 °F 56 °F 83 °F (1988)
Min Temperature 37 °F 35 °F 11 °F (1937)
Degree Days  
Heating Degree Days 20 20  
Month to date heating degree days 120 235  
Since 1 July heating degree days 292 555  
Cooling Degree Days 0 0  
Month to date cooling degree days 9 0  
Year to date cooling degree days 508 444  
Moisture  
Dew Point 38 °F    
Average Humidity 73    
Maximum Humidity 85    
Minimum Humidity 61    
Precipitation  
Precipitation 0.01 in 0.04 in 1.24 in (1975)
Month to date precipitation 0.73 0.61  
Year to date precipitation 21.81 15.51  
Sea Level Pressure  
Sea Level Pressure 29.92 in    
Wind  
Wind Speed 14 mph (West)    
Max Wind Speed 23 mph    
Max Gust Speed 31 mph    
Visibility 10 miles    
Events Rain    
T = Trace of Precipitation, MM = Missing Value Source: NWS Daily Summary

Daily Weather History Graph

Daily Weather History Graph

Search for Another Location

Airport or City:

Trip Planner

Search our weather history database for the weather conditions in past years. The results will help you decide how hot, cold, wet, or windy it might be!

Date:

Astronomy

Oct. 14, 2011 Rise Set
Actual Time 8:02 AM CDT 6:58 PM CDT
Civil Twilight 7:31 AM CDT 7:29 PM CDT
Nautical Twilight 6:55 AM CDT 8:05 PM CDT
Astronomical Twilight 6:19 AM CDT 8:42 PM CDT
Moon 7:55 PM CDT (10/14) 10:50 AM CDT (10/14)
Length of Visible Light 11h 58m
Length of Day
10h 55m
Waning Gibbous, 94% of the Moon is Illuminated
Oct 14
Waning Gibbous
Oct 19
Last Quarter
Oct 26
New
Nov 2
First Quarter
Nov 10
Full

Hourly Weather History & Observations

Time (CDT) Temp. Windchill Dew Point Humidity Pressure Visibility Wind Dir Wind Speed Gust Speed Precip Events Conditions
12:54 AM 46.0 °F 41.0 °F 41.0 °F 83% 29.84 in 10.0 mi West 10.4 mph - N/A   Scattered Clouds
1:54 AM 46.0 °F 40.2 °F 41.0 °F 83% 29.84 in 10.0 mi West 12.7 mph - N/A   Overcast
2:54 AM 46.0 °F 40.2 °F 39.0 °F 76% 29.85 in 10.0 mi West 12.7 mph - N/A   Overcast
3:54 AM 44.1 °F 38.6 °F 37.9 °F 79% 29.86 in 10.0 mi West 10.4 mph - N/A   Mostly Cloudy
4:54 AM 45.0 °F 37.9 °F 37.9 °F 76% 29.86 in 10.0 mi West 16.1 mph - N/A   Overcast
5:20 AM 44.6 °F 36.6 °F 37.4 °F 76% 29.84 in 10.0 mi West 19.6 mph - N/A   Overcast
5:36 AM 46.4 °F 39.5 °F 39.2 °F 76% 29.84 in 10.0 mi West 17.3 mph - N/A   Overcast
5:54 AM 45.0 °F 37.4 °F 39.0 °F 80% 29.87 in 10.0 mi West 18.4 mph 28.8 mph N/A   Overcast
6:03 AM 44.6 °F 36.4 °F 39.2 °F 81% 29.84 in 10.0 mi West 20.7 mph 26.5 mph N/A   Overcast
6:40 AM 44.6 °F 36.6 °F 39.2 °F 81% 29.85 in 8.0 mi West 19.6 mph - 0.00 in Rain Light Rain
6:54 AM 45.0 °F 36.9 °F 39.9 °F 82% 29.88 in 10.0 mi West 20.7 mph 25.3 mph 0.00 in   Overcast
7:54 AM 45.0 °F 37.9 °F 39.9 °F 82% 29.89 in 10.0 mi West 16.1 mph 26.5 mph N/A   Overcast
8:14 AM 44.6 °F 37.2 °F 41.0 °F 87% 29.87 in 10.0 mi WNW 17.3 mph 26.5 mph N/A   Overcast
8:54 AM 45.0 °F 37.6 °F 41.0 °F 86% 29.92 in 2.0 mi WNW 17.3 mph 27.6 mph 0.01 in Rain Light Rain
8:58 AM 44.6 °F 37.2 °F 41.0 °F 87% 29.89 in 3.0 mi WNW 17.3 mph 26.5 mph 0.00 in Rain Light Rain
9:12 AM 44.6 °F 36.9 °F 41.0 °F 87% 29.90 in 10.0 mi WNW 18.4 mph 25.3 mph 0.00 in   Overcast
9:54 AM 45.0 °F 37.6 °F 41.0 °F 86% 29.95 in 10.0 mi WNW 17.3 mph - 0.00 in   Overcast
10:54 AM 48.0 °F - 41.0 °F 77% 29.96 in 10.0 mi WNW 20.7 mph 28.8 mph N/A   Clear
11:54 AM 51.1 °F - 39.9 °F 66% 29.97 in 10.0 mi WNW 15.0 mph 25.3 mph N/A   Partly Cloudy
12:25 PM 51.8 °F - 37.4 °F 58% 29.94 in 10.0 mi WNW 19.6 mph 26.5 mph N/A   Mostly Cloudy
12:54 PM 50.0 °F - 37.0 °F 61% 29.97 in 10.0 mi WNW 17.3 mph 26.5 mph N/A   Mostly Cloudy
1:01 PM 50.0 °F - 37.4 °F 62% 29.94 in 10.0 mi WNW 17.3 mph - N/A   Overcast
1:54 PM 50.0 °F - 37.4 °F 62% 29.94 in 10.0 mi West 15.0 mph - N/A   Overcast
2:54 PM 50.0 °F - 37.0 °F 61% 29.96 in 10.0 mi West 21.9 mph 26.5 mph N/A   Overcast
3:54 PM 48.9 °F - 36.0 °F 61% 29.97 in 10.0 mi West 18.4 mph - N/A   Overcast
4:44 PM 48.2 °F - 37.4 °F 66% 29.94 in 10.0 mi West 18.4 mph 25.3 mph N/A   Overcast
4:54 PM 48.0 °F - 37.0 °F 66% 29.97 in 10.0 mi WNW 16.1 mph 23.0 mph N/A   Overcast
5:12 PM 48.2 °F - 37.4 °F 66% 29.94 in 10.0 mi West 15.0 mph 24.2 mph N/A   Overcast
5:54 PM 48.0 °F - 37.0 °F 66% 29.97 in 10.0 mi West 13.8 mph - N/A   Overcast
6:54 PM 48.0 °F - 37.0 °F 66% 29.97 in 10.0 mi West 11.5 mph - N/A   Overcast
7:54 PM 45.0 °F 40.1 °F 37.0 °F 74% 29.97 in 10.0 mi West 9.2 mph - N/A   Partly Cloudy
8:54 PM 42.1 °F 37.1 °F 36.0 °F 79% 29.96 in 10.0 mi SW 8.1 mph - N/A   Clear
9:54 PM 42.1 °F 37.1 °F 35.1 °F 76% 29.96 in 10.0 mi West 8.1 mph - N/A   Clear
10:54 PM 39.9 °F 34.5 °F 35.1 °F 83% 29.96 in 10.0 mi WSW 8.1 mph - N/A   Clear
11:54 PM 39.0 °F 32.8 °F 35.1 °F 86% 29.96 in 10.0 mi SW 9.2 mph - N/A   Clear